CW4814 Weather Reports


Display with metric or nautical units.
time (UTC)temp
F
wind
direction
speed
MPH
gust
MPH
rain 1hr
in
rain 24hr
in
rain mn
in
humidity
%
barometer
mb
20200229074524 44 273 0.0 0.0 0.00 0.00 0.00 2 1026.0
20200229073039 44 273 0.0 0.0 0.00 0.00 0.00 1 1026.0
20200229071528 43 273 0.0 0.0 0.00 0.00 0.00 6 1026.0
20200229070011 43 273 0.0 0.0 0.00 0.00 0.00 15 1026.1
20200229064516 43 273 0.0 0.0 0.00 0.00 0.00 21 1026.0
20200229063020 44 273 0.0 0.0 0.00 0.00 0.00 24 1026.0
20200229061502 44 273 0.0 0.0 0.00 0.00 0.00 35 1026.0
20200229060217 44 273 0.0 0.0 0.00 0.00 0.00 36 1026.1
20200229054738 44 273 0.0 0.0 0.00 0.00 0.00 41 1026.1
20200229053135 45 273 0.0 0.0 0.00 0.00 0.00 39 1026.2
20200229051659 45 273 0.0 0.0 0.00 0.00 0.00 43 1026.2
20200229050217 46 273 0.0 0.0 0.00 0.00 0.00 27 1026.3
20200229044741 47 273 0.0 0.0 0.00 0.00 0.00 31 1026.4
20200229043208 47 279 0.0 0.0 0.00 0.00 0.00 45 1026.7
20200229041623 47 273 0.0 0.0 0.00 0.00 0.00 50 1026.6
20200229040121 48 281 0.0 0.0 0.00 0.00 0.00 53 1026.7
20200229034546 49 279 0.0 0.0 0.00 0.00 0.00 53 1026.6
20200229033141 49 275 0.0 0.0 0.00 0.00 0.00 59 1026.5
20200229031611 49 273 0.0 0.0 0.00 0.00 0.00 60 1026.4
20200229030109 50 273 0.0 0.0 0.00 0.00 0.00 58 1026.5
20200229024641 50 273 0.0 0.0 0.00 0.00 0.00 62 1026.4
20200229023123 50 273 0.0 0.0 0.00 0.00 0.00 63 1026.2
20200229021534 51 273 0.0 0.0 0.00 0.00 0.00 63 1026.1
20200229020038 52 273 0.0 0.0 0.00 0.00 0.00 63 1026.0
20200229014516 53 273 0.0 0.0 0.00 0.00 0.00 62 1025.8
20200229013011 54 273 0.0 0.0 0.00 0.00 0.00 57 1025.7
20200229011511 55 273 0.0 0.0 0.00 0.00 0.00 56 1025.5
20200229010007 56 273 0.0 0.0 0.00 0.00 0.00 52 1025.4
20200229004813 58 273 0.0 0.0 0.00 0.00 0.00 47 1025.3
20200229003202 60 273 0.0 0.0 0.00 0.00 0.00 44 1025.2
20200229001701 63 273 0.0 0.0 0.00 0.00 0.00 39 1025.1
20200228234632 68 273 0.0 0.0 0.00 0.00 0.00 33 1024.9
20200228233108 69 293 0.0 0.0 0.00 0.00 0.00 31 1024.8
20200228231547 71 103 0.0 0.0 0.00 0.00 0.00 26 1024.8
20200228224624 71 265 0.0 1.0 0.00 0.00 0.00 26 1024.9
20200228223102 72 360 0.0 0.0 0.00 0.00 0.00 24 1024.8
20200228221528 72 360 0.0 0.0 0.00 0.00 0.00 26 1024.9
20200228214513 73 360 0.0 0.0 0.00 0.00 0.00 26 1025.0
20200228213020 72 360 0.0 0.0 0.00 0.00 0.00 28 1025.2
20200228211503 71 360 0.0 1.0 0.00 0.00 0.00 30 1025.1
20200228204651 71 360 0.0 0.0 0.00 0.00 0.00 30 1025.1
20200228203130 70 360 0.0 1.0 0.00 0.00 0.00 31 1025.3
20200228201640 69 360 0.0 1.0 0.00 0.00 0.00 33 1025.4
20200228194640 68 360 0.0 2.0 0.00 0.00 0.00 37 1025.7
20200228193054 68 360 0.0 1.0 0.00 0.00 0.00 38 1025.9
20200228191636 67 360 0.0 1.0 0.00 0.00 0.00 36 1026.2
20200228184537 66 360 0.0 3.0 0.00 0.00 0.00 38 1026.7
20200228183024 65 360 0.0 3.0 0.00 0.00 0.00 37 1026.9
20200228181523 64 360 0.0 1.0 0.00 0.00 0.00 40 1027.1
20200228174537 63 267 0.0 1.0 0.00 0.00 0.00 41 1027.7
20200228173017 62 241 0.0 2.0 0.00 0.00 0.00 43 1027.9
20200228164635 60 360 0.0 4.0 0.00 0.00 0.00 46 1028.2
20200228163132 59 309 0.0 2.0 0.00 0.00 0.00 47 1028.3
20200228161713 58 257 0.0 8.0 0.00 0.00 0.00 49 1028.4
20200228154627 55 250 0.0 9.0 0.00 0.00 0.00 59 1028.4
20200228153128 54 258 0.0 2.0 0.00 0.00 0.00 61 1028.2
20200228151612 52 238 0.0 0.0 0.00 0.00 0.00 64 1028.2
20200228144537 49 360 0.0 0.0 0.00 0.00 0.00 64 1027.7
20200228143022 47 360 0.0 5.0 0.00 0.00 0.00 62 1027.6
20200228141520 46 360 0.0 1.0 0.00 0.00 0.00 57 1027.4
20200228134526 42 244 0.0 2.0 0.00 0.00 0.00 8 1027.1
20200228133004 40 290 0.0 0.0 0.00 0.00 0.00 1 1027.2
20200228131636 40 290 0.0 0.0 0.00 0.00 0.00 1 1026.9
20200228124607 40 290 0.0 0.0 0.00 0.00 0.00 1 1026.6
20200228123114 40 290 0.0 0.0 0.00 0.00 0.00 1 1026.7
20200228121645 40 290 0.0 0.0 0.00 0.00 0.00 1 1026.4
20200228114545 40 290 0.0 0.0 0.00 0.00 0.00 1 1026.2
20200228113136 40 290 0.0 0.0 0.00 0.00 0.00 1 1026.1
20200228111609 40 298 0.0 0.0 0.00 0.00 0.00 1 1025.8
20200228104612 41 298 0.0 0.0 0.00 0.00 0.00 1 1025.8
20200228103130 41 298 0.0 0.0 0.00 0.00 0.00 1 1025.6
20200228101523 40 298 0.0 0.0 0.00 0.00 0.00 1 1025.3
20200228094521 40 36 0.0 0.0 0.00 0.00 0.00 1 1025.4
20200228093150 40 36 0.0 0.0 0.00 0.00 0.00 1 1025.5
20200228091632 40 36 0.0 0.0 0.00 0.00 0.00 1 1025.6
20200228090309 40 36 0.0 0.0 0.00 0.00 0.00 4 1025.9
20200228084642 40 36 0.0 0.0 0.00 0.00 0.00 8 1025.9
20200228083218 40 36 0.0 0.0 0.00 0.00 0.00 9 1026.0
20200228081546 40 36 0.0 0.0 0.00 0.00 0.00 7 1026.2
20200228080113 40 36 0.0 0.0 0.00 0.00 0.00 11 1026.2
20200228074552 40 36 0.0 0.0 0.00 0.00 0.00 12 1026.2